1534407120.16,20606,20.69,74390.5,22.35,8.93,9.21,0,*41
1534407121.37,20607,20.69,74394.8,22.35,9.15,9.47,0,*4F
1534407122.57,20608,20.75,74394.5,22.35,8.45,8.71,0,*40
1534407123.77,20609,20.75,74394.0,22.35,8.41,8.65,0,*40
1534407124.98,20610,20.75,74392.5,22.35,9.33,9.61,0,*49
1534407126.2,20611,20.75,74392.8,22.33,10.13,10.51,0,*4F
1534407127.44,20612,20.75,74394.3,22.33,9.91,10.23,0,*7B
1534407128.67,20613,20.69,74390.8,22.33,9.15,9.47,0,*4C
1534407129.88,20614,20.75,74394.5,22.31,9.15,9.47,0,*49
1534407131.13,20615,20.69,74390.3,22.29,9.11,9.35,0,*40
1534407132.37,20616,20.75,74392.8,22.31,9.39,9.81,0,*4F
1534407133.62,20617,20.75,74392.3,22.33,9.57,9.85,0,*40
1534407134.83,20618,20.75,74392.3,22.31,9.61,10.03,0,*7E
1534407136.06,20619,20.75,74392.5,22.29,8.59,8.87,0,*49
1534407137.27,20620,20.69,74392.3,22.29,8.79,9.03,0,*4C
1534407138.5,20621,20.75,74394.5,22.25,8.83,9.11,0,*47
1534407139.73,20622,20.75,74394.0,22.21,7.79,8.13,0,*49
1534407140.95,20623,20.75,74394.0,22.21,9.47,9.91,0,*40
1534407142.17,20624,20.69,74390.8,22.21,10.17,10.69,0,*45
1534407143.4,20625,20.75,74394.3,22.21,9.25,9.61,0,*4D
1534407144.63,20626,20.75,74394.5,22.21,9.25,9.61,0,*4E
1534407145.86,20627,20.69,74388.5,22.21,9.03,9.35,0,*4A
1534407147.06,20628,20.69,74392.3,22.17,9.21,9.57,0,*44
1534407148.3,20629,20.75,74392.3,22.19,9.77,10.03,0,*71
1534407149.53,20630,20.75,74392.8,22.19,9.15,9.47,0,*45
1534407150.74,20631,20.75,74392.8,22.17,9.21,9.53,0,*48
1534407151.94,20632,20.75,74392.3,22.17,8.13,8.23,0,*4D
1534407153.2,20633,20.75,74392.3,22.15,8.71,9.01,0,*4B
1534407154.41,20634,20.75,74394.0,22.15,9.67,10.09,0,*7A
1534407155.66,20635,20.69,74388.5,22.15,9.11,9.39,0,*41
1534407156.9,20636,20.69,74388.0,22.11,8.27,8.47,0,*4A
1534407158.1,20637,20.75,74390.8,22.13,8.69,8.93,0,*4A
1534407159.31,20638,20.75,74390.0,22.09,9.15,9.43,0,*48
1534407160.51,20639,20.75,74390.8,22.09,8.65,8.89,0,*48
1534407161.72,20640,20.75,74390.8,22.09,9.01,9.25,0,*42
1534407162.91,20641,20.75,74392.0,22.09,8.09,8.27,0,*49
1534407164.17,20642,20.75,74394.0,22.07,7.61,7.73,0,*4B
1534407165.4,20643,20.75,74392.3,21.99,8.15,8.47,0,*4A
1534407166.66,20644,20.75,74394.5,21.99,8.71,9.15,0,*49
1534407167.9,20645,20.75,74394.8,21.99,8.27,8.55,0,*4E
1534407169.11,20646,20.75,74394.0,21.97,8.41,8.87,0,*4C
1534407170.31,20647,20.69,74392.3,21.97,8.09,8.51,0,*4A
1534407171.49,20648,20.75,74394.0,21.97,8.23,8.79,0,*47
1534407172.73,20649,20.75,74394.8,21.95,9.33,9.85,0,*46
1534407173.91,20650,20.75,74396.3,21.97,9.43,9.95,0,*4A
1534407175.18,20651,20.75,74394.0,21.95,9.39,9.85,0,*45
1534407176.41,20652,20.75,74392.3,21.95,7.73,8.15,0,*4E
1534407177.63,20653,20.75,74394.0,21.95,7.79,8.19,0,*49
1534407178.85,20654,20.75,74392.5,21.95,8.05,8.71,0,*44
1534407180.06,20655,20.75,74394.3,21.91,7.45,7.79,0,*4D
1534407181.27,20656,20.75,74394.5,21.91,7.33,7.79,0,*4F
1534407182.45,20657,20.75,74394.0,21.89,7.97,8.65,0,*4B
1534407183.65,20658,20.75,74392.3,21.87,8.93,9.63,0,*46
1534407184.83,20659,20.75,74394.5,21.87,9.29,9.91,0,*4A
1534407186.02,20660,20.75,74396.0,21.89,9.63,10.03,0,*73
1534407187.23,20661,20.75,74394.8,21.89,9.25,9.85,0,*46
1534407188.45,20662,20.75,74396.3,21.89,9.07,9.53,0,*4E
1534407189.63,20663,20.75,74392.5,21.89,8.69,9.07,0,*47
1534407190.89,20664,20.75,74398.8,21.91,9.35,9.81,0,*4F
1534407192.13,20665,20.75,74396.3,21.91,9.39,9.99,0,*4B
1534407193.37,20666,20.75,74394.8,21.91,9.77,10.33,0,*7A
1534407194.61,20667,20.75,74394.0,21.93,9.53,9.85,0,*4A
1534407195.8,20668,20.75,74396.5,21.93,9.43,9.91,0,*41
1534407197.01,20669,20.75,74394.8,21.93,9.53,10.05,0,*74
1534407198.23,20670,20.75,74398.8,21.91,8.23,8.69,0,*4B
1534407199.43,20671,20.75,74396.8,21.91,8.69,9.29,0,*41
1534407200.7,20672,20.75,74392.8,21.91,8.55,9.01,0,*47
1534407201.93,20673,20.75,74394.3,21.91,9.03,9.61,0,*42
1534407203.14,20674,20.75,74396.0,21.91,8.79,9.29,0,*45
1534407204.37,20675,20.75,74394.0,21.89,8.97,9.35,0,*40
1534407205.55,20676,20.69,74392.0,21.87,8.61,8.87,0,*4C
1534407206.76,20677,20.75,74394.8,21.89,9.21,9.53,0,*4E
1534407207.94,20678,20.75,74392.8,21.89,8.65,9.07,0,*41
1534407209.17,20679,20.69,74392.3,21.89,9.11,9.35,0,*43
1534407210.42,20680,20.75,74394.0,21.89,9.85,10.19,0,*7E
1534407211.64,20681,20.75,74392.5,21.89,10.09,10.41,0,*4E
1534407212.87,20682,20.75,74392.5,21.87,9.15,9.39,0,*41
1534407214.08,20683,20.75,74396.5,21.89,9.19,9.33,0,*48
1534407215.31,20684,20.75,74394.0,21.89,8.59,8.89,0,*4A
1534407216.51,20685,20.75,74396.5,21.85,7.97,8.19,0,*43
1534407217.73,20686,20.75,74394.0,21.87,7.79,7.95,0,*49
1534407218.96,20687,20.75,74394.5,21.83,7.69,7.77,0,*41
1534407220.2,20688,20.75,74394.8,21.81,8.27,8.51,0,*42
1534407221.42,20689,20.75,74396.8,21.79,9.99,10.31,0,*7F
1534407222.64,20690,20.75,74394.0,21.81,10.17,10.33,0,*4C
1534407223.91,20691,20.75,74394.5,21.81,10.23,10.37,0,*4E
1534407225.12,20692,20.75,74394.5,21.81,10.47,10.69,0,*44
1534407226.31,20693,20.75,74394.0,21.83,10.43,10.69,0,*43
1534407227.55,20694,20.75,74394.0,21.85,10.05,10.27,0,*4A
1534407228.79,20695,20.75,74398.0,21.85,10.47,10.57,0,*4A
1534407230.04,20696,20.75,74394.0,21.85,10.31,10.55,0,*4A
1534407231.3,20697,20.75,74394.0,21.85,10.57,10.83,0,*40
1534407232.48,20698,20.75,74394.8,21.83,9.95,10.17,0,*72
1534407233.75,20699,20.75,74392.8,21.85,10.71,10.95,0,*4D
1534407234.97,20700,20.75,74394.8,21.83,10.17,10.37,0,*42
1534407236.2,20701,20.75,74396.8,21.85,10.61,10.85,0,*4D
1534407237.43,20702,20.75,74396.8,21.85,10.57,10.85,0,*4B
1534407238.7,20703,20.75,74394.8,21.85,10.71,11.07,0,*45
1534407239.93,20704,20.75,74392.8,21.85,9.33,9.53,0,*44
1534407241.18,20705,20.75,74394.3,21.85,9.15,9.39,0,*4D
1534407242.37,20706,20.75,74392.0,21.83,9.95,10.33,0,*72
1534407243.56,20707,20.75,74394.3,21.83,10.47,10.89,0,*45
1534407244.77,20708,20.75,74390.8,21.83,10.05,10.37,0,*49
1534407245.99,20709,20.75,74388.5,21.83,10.55,10.83,0,*42
1534407247.2,20710,20.75,74394.0,21.83,10.61,10.93,0,*4C
1534407248.41,20711,20.75,74392.0,21.83,10.65,10.89,0,*42
1534407249.63,20712,20.75,74394.3,21.83,10.47,10.83,0,*4B
1534407250.87,20713,20.75,74392.5,21.83,10.37,10.83,0,*4D
1534407252.09,20714,20.75,74392.8,21.83,10.83,11.13,0,*4D
1534407253.3,20715,20.75,74394.5,21.83,10.89,11.33,0,*44
1534407254.56,20716,20.75,74392.3,21.85,10.83,11.27,0,*4E
1534407255.8,20717,20.75,74392.5,21.85,10.85,11.37,0,*48
1534407257.05,20718,20.75,74394.5,21.85,11.13,11.61,0,*4A
1534407258.32,20719,20.75,74394.0,21.85,11.23,11.71,0,*49
1534407259.58,20720,20.75,74394.0,21.85,11.27,11.71,0,*47
1534407260.8,20721,20.75,74392.3,21.89,11.07,11.51,0,*4A
1534407262.03,20722,20.75,74394.3,21.89,10.95,11.41,0,*42
1534407263.24,20723,20.75,74392.3,21.87,10.57,10.93,0,*4D
1534407264.48,20724,20.75,74392.0,21.89,10.65,10.99,0,*4F
1534407265.69,20725,20.75,74394.3,21.89,9.57,9.95,0,*43
1534407266.91,20726,20.75,74394.0,21.89,10.19,10.55,0,*46
1534407268.15,20727,20.75,74394.3,21.87,11.23,11.67,0,*41
1534407269.39,20728,20.75,74392.0,21.87,10.75,11.03,0,*4E
1534407270.61,20729,20.75,74392.5,21.87,10.05,10.37,0,*4E
1534407271.84,20730,20.75,74390.5,21.87,8.97,9.19,0,*40
1534407273.06,20731,20.75,74388.0,21.87,8.27,8.55,0,*43
1534407274.27,20732,20.75,74390.0,21.81,10.03,10.33,0,*40
1534407275.49,20733,20.75,74390.5,21.83,10.83,11.21,0,*49
1534407276.76,20734,20.75,74390.5,21.81,10.79,11.03,0,*49
1534407277.96,20735,20.75,74392.8,21.83,11.13,11.55,0,*44
1534407279.2,20736,20.75,74390.3,21.83,11.45,11.75,0,*46
1534407280.45,20737,20.75,74394.5,21.83,10.79,10.99,0,*4A
1534407281.67,20738,20.75,74392.5,21.83,10.33,10.61,0,*4C
1534407282.93,20739,20.75,74392.8,21.85,10.65,11.03,0,*4D
1534407284.17,20740,20.75,74390.5,21.85,10.83,11.17,0,*4E
1534407285.43,20741,20.75,74392.3,21.85,11.07,11.41,0,*41
1534407286.67,20742,20.75,74392.8,21.85,10.47,10.83,0,*48
1534407287.92,20743,20.75,74394.3,21.85,11.23,11.51,0,*44
1534407289.18,20744,20.75,74388.5,21.85,10.95,11.23,0,*4A
1534407290.42,20745,20.75,74392.5,21.85,9.85,10.09,0,*7B
1534407291.65,20746,20.75,74392.0,21.83,10.23,10.47,0,*40
1534407292.87,20747,20.75,74388.0,21.83,10.03,10.31,0,*42
1534407294.09,20748,20.75,74394.8,21.83,10.33,10.57,0,*4E
1534407295.33,20749,20.75,74392.0,21.83,10.27,10.57,0,*4A
1534407296.57,20750,20.75,74392.0,21.83,10.23,10.37,0,*40
1534407297.76,20751,20.75,74392.8,21.83,9.91,10.05,0,*71
1534407298.98,20752,20.75,74390.3,21.81,9.91,10.13,0,*77
1534407300.22,20753,20.75,74392.0,21.81,10.27,10.55,0,*41
1534407301.41,20754,20.75,74388.5,21.79,9.47,9.75,0,*45
1534407302.62,20755,20.75,74390.3,21.79,9.21,9.53,0,*40
1534407303.85,20756,20.75,74390.8,21.79,9.85,10.13,0,*71
1534407305.08,20757,20.75,74392.0,21.73,8.51,8.69,0,*46
1534407306.31,20758,20.75,74388.8,21.73,8.23,8.41,0,*46
1534407307.55,20759,20.75,74392.0,21.69,9.03,9.35,0,*4D
1534407308.74,20760,20.75,74394.3,21.67,8.83,9.07,0,*41
1534407309.97,20761,20.75,74392.5,21.67,8.93,9.19,0,*4E
1534407311.18,20762,20.75,74390.5,21.65,8.79,9.03,0,*40
1534407312.43,20763,20.75,74394.0,21.63,8.93,9.19,0,*48
1534407313.64,20764,20.75,74394.5,21.61,8.19,8.45,0,*47
1534407314.88,20765,20.75,74392.0,21.61,8.93,9.25,0,*43
1534407316.06,20766,20.75,74392.5,21.59,9.63,9.95,0,*4E
1534407317.29,20767,20.75,74392.8,21.57,8.65,8.97,0,*45
1534407318.53,20768,20.75,74390.0,21.57,8.15,8.33,0,*43
1534407319.77,20769,20.75,74390.3,21.51,8.55,8.83,0,*4B
1534407321.01,20770,20.75,74394.3,21.47,9.29,9.53,0,*42
1534407322.2,20771,20.75,74394.5,21.49,8.23,8.61,0,*46
1534407323.42,20772,20.75,74392.8,21.47,9.07,9.29,0,*41
1534407324.69,20773,20.75,74392.8,21.47,9.19,9.39,0,*4E
1534407325.93,20774,20.75,74390.3,21.43,8.55,8.83,0,*44
1534407327.17,20775,20.75,74390.3,21.43,9.33,9.57,0,*4C
1534407328.41,20776,20.75,74392.5,21.43,8.79,9.01,0,*43
1534407329.63,20777,20.75,74390.0,21.41,8.15,8.37,0,*4E
1534407330.87,20778,20.75,74392.8,21.39,8.41,8.69,0,*44
1534407332.09,20779,20.75,74390.8,21.37,8.09,8.37,0,*4C
1534407333.32,20780,20.75,74394.0,21.35,7.91,8.09,0,*4B
1534407334.56,20781,20.75,74394.8,21.35,8.27,8.47,0,*42
1534407335.79,20782,20.75,74388.5,21.29,7.83,7.91,0,*49
1534407336.98,20783,20.75,74394.0,21.29,7.41,7.55,0,*4E
1534407338.19,20784,20.75,74388.8,21.25,7.05,7.19,0,*4D
1534407339.36,20785,20.75,74390.8,21.21,7.97,8.23,0,*45
1534407340.56,20786,20.75,74388.0,21.21,8.13,8.45,0,*45
1534407341.81,20787,20.75,74390.0,21.19,7.73,7.91,0,*40
1534407343.01,20788,20.75,74392.5,21.17,7.05,7.27,0,*4D
1534407344.23,20789,20.75,74390.3,21.13,7.65,7.95,0,*47
1534407345.44,20790,20.75,74388.3,21.07,7.29,7.51,0,*4A
1534407346.63,20791,20.75,74388.5,21.07,7.41,7.59,0,*4D
1534407347.86,20792,20.75,74388.0,21.07,7.19,7.29,0,*44
1534407349.11,20793,20.75,74390.0,21.03,7.11,7.23,0,*43
1534407350.37,20794,20.75,74390.3,20.99,7.47,7.61,0,*43
1534407351.59,20795,20.75,74388.5,20.97,6.57,6.69,0,*45
1534407352.79,20796,20.75,74390.5,20.95,6.79,6.93,0,*4D
1534407353.96,20797,20.75,74386.5,20.91,6.83,6.97,0,*49
1534407355.14,20798,20.75,74390.8,20.91,7.29,7.45,0,*49
1534407356.36,20799,20.75,74386.8,20.89,6.87,7.05,0,*40
1534407357.56,20800,20.75,74392.8,20.85,6.83,7.05,0,*47
1534407358.78,20801,20.75,74390.0,20.81,6.17,6.29,0,*40
1534407359.99,20802,20.75,74390.0,20.79,7.05,7.19,0,*44
1534407361.23,20803,20.75,74390.8,20.77,6.53,6.69,0,*4F
1534407362.46,20804,20.75,74392.0,20.73,6.57,6.75,0,*45
1534407363.69,20805,20.75,74388.3,20.73,6.33,6.43,0,*43
1534407364.93,20806,20.75,74388.5,20.69,5.93,6.11,0,*45
1534407366.11,20807,20.75,74392.0,20.63,5.95,6.21,0,*4B
1534407367.37,20808,20.75,74388.5,20.61,7.61,7.91,0,*45
1534407368.6,20809,20.75,74390.5,20.61,8.41,8.87,0,*41
1534407369.83,20810,20.75,74394.3,20.61,8.65,9.01,0,*40
1534407371.06,20811,20.75,74392.0,20.61,7.29,7.65,0,*4A
1534407372.3,20812,20.75,74394.5,20.61,8.19,8.51,0,*4D
1534407373.52,20813,20.75,74390.8,20.57,6.53,6.61,0,*44
1534407374.74,20814,20.75,74392.0,20.55,8.05,8.51,0,*41
1534407375.95,20815,20.75,74388.0,20.57,8.23,8.59,0,*4E
1534407377.15,20816,20.75,74392.8,20.55,8.45,8.79,0,*4D
1534407378.35,20817,20.75,74394.5,20.57,7.95,8.19,0,*4A
1534407379.61,20818,20.75,74390.3,20.55,7.91,8.37,0,*4F
1534407380.79,20819,20.75,74394.0,20.57,8.65,9.03,0,*4E
1534407381.96,20820,20.81,74396.8,20.57,9.21,9.63,0,*43
1534407383.19,20821,20.75,74394.5,20.57,9.39,9.85,0,*43
1534407384.42,20822,20.75,74394.5,20.57,8.41,8.71,0,*44
1534407385.63,20823,20.75,74394.8,20.57,9.03,9.53,0,*43
1534407386.8,20824,20.75,74396.3,20.57,8.65,9.29,0,*48
1534407388.02,20825,20.75,74396.5,20.57,8.51,8.97,0,*4A
1534407389.27,20826,20.75,74396.0,20.59,8.75,9.35,0,*48
1534407390.51,20827,20.75,74392.8,20.61,9.19,9.75,0,*4D
1534407391.75,20828,20.75,74394.0,20.61,9.35,10.03,0,*75
1534407392.96,20829,20.75,74394.5,20.59,8.87,9.47,0,*4F
1534407394.16,20830,20.75,74396.3,20.63,9.11,9.71,0,*45
1534407395.37,20831,20.75,74392.8,20.63,9.03,9.61,0,*46
1534407396.59,20832,20.75,74394.0,20.63,9.01,9.67,0,*41
1534407397.79,20833,20.75,74396.0,20.63,9.03,9.61,0,*44
1534407399.0,20834,20.75,74392.0,20.67,8.87,9.61,0,*4A
1534407400.25,20835,20.75,74394.0,20.69,9.07,9.81,0,*42
1534407401.48,20836,20.75,74398.8,20.69,8.93,9.63,0,*41
1534407402.72,20837,20.75,74392.3,20.69,9.07,9.85,0,*44
1534407403.94,20838,20.75,74392.8,20.71,9.07,9.81,0,*46
1534407405.18,20839,20.75,74392.8,20.69,9.49,10.47,0,*76
1534407406.42,20840,20.75,74394.5,20.73,9.11,10.03,0,*7E
1534407407.62,20841,20.75,74394.8,20.73,9.21,10.17,0,*79
1534407408.83,20842,20.75,74394.8,20.75,9.21,10.37,0,*7E
1534407410.02,20843,20.75,74396.0,20.75,8.79,9.91,0,*47
1534407411.25,20844,20.75,74394.3,20.77,7.83,9.07,0,*47
1534407412.48,20845,20.75,74394.3,20.77,7.37,8.93,0,*45
1534407413.74,20846,20.75,74394.0,20.77,8.47,10.27,0,*78
1534407414.96,20847,20.75,74394.8,20.79,9.03,10.79,0,*7D
1534407416.18,20848,20.75,74392.8,20.79,9.19,11.09,0,*7F
1534407417.41,20849,20.75,74394.5,20.83,9.35,11.31,0,*7E
1534407418.65,20850,20.75,74394.3,20.85,9.07,11.23,0,*72
1534407419.87,20851,20.75,74394.0,20.85,9.39,11.81,0,*76
1534407421.08,20852,20.75,74394.3,20.91,9.39,11.93,0,*73
1534407422.28,20853,20.75,74392.0,20.97,9.03,11.79,0,*79
1534407423.48,20854,20.75,74392.5,20.97,10.41,13.41,0,*49
1534407424.69,20855,20.75,74392.0,21.05,10.93,13.91,0,*40
1534407425.95,20856,20.75,74394.3,21.11,11.23,14.11,0,*43
1534407427.22,20857,20.75,74394.0,21.15,11.45,14.25,0,*41
1534407428.45,20858,20.75,74394.8,21.21,11.71,14.71,0,*4F
1534407429.7,20859,20.75,74394.3,21.27,11.57,14.35,0,*4C
1534407430.99,20860,20.75,74396.0,21.35,11.37,14.15,0,*41
1534407432.21,20861,20.75,74392.5,21.41,11.79,14.81,0,*44
1534407433.47,20862,20.75,74392.0,21.47,11.09,14.19,0,*47
1534407434.73,20863,20.75,74394.5,21.53,11.45,14.55,0,*43
1534407435.95,20864,20.75,74392.8,21.59,10.83,14.05,0,*40
1534407437.2,20865,20.75,74394.8,21.63,10.83,13.85,0,*47
1534407438.42,20866,20.75,74396.0,21.67,10.19,12.81,0,*46
1534407439.66,20867,20.75,74394.3,21.71,9.85,12.83,0,*7F
1534407440.92,20868,20.75,74390.5,21.73,8.37,11.23,0,*73
1534407442.15,20869,20.75,74394.3,21.75,9.11,12.17,0,*75
1534407443.38,20870,20.75,74394.8,21.81,9.57,12.51,0,*76
1534407444.59,20871,20.75,74396.8,21.83,8.45,11.23,0,*71
1534407445.83,20872,20.75,74392.5,21.85,8.09,10.95,0,*70
1534407447.05,20873,20.75,74396.0,21.87,7.29,10.31,0,*70
1534407448.29,20874,20.75,74392.8,21.87,7.69,10.83,0,*7A
1534407449.53,20875,20.75,74392.0,21.89,9.01,12.29,0,*77
1534407450.75,20876,20.75,74396.8,21.95,9.43,12.73,0,*70
1534407451.99,20877,20.75,74394.5,21.95,9.75,12.97,0,*7E
1534407453.24,20878,20.75,74394.3,22.03,10.17,13.31,0,*4C
1534407454.47,20879,20.75,74394.3,22.03,10.17,13.07,0,*48
1534407455.71,20880,20.75,74392.3,22.09,10.27,12.97,0,*4F
1534407456.93,20881,20.81,74396.5,22.11,10.85,13.25,0,*47
1534407458.19,20882,20.81,74396.0,22.15,11.27,13.61,0,*49
1534407459.43,20883,20.75,74394.3,22.17,10.99,13.01,0,*48
1534407460.7,20884,20.75,74394.3,22.21,11.07,13.21,0,*4E
1534407461.95,20885,20.75,74392.8,22.25,11.95,13.89,0,*42
1534407463.16,20886,20.75,74394.0,22.31,12.63,14.51,0,*4C
1534407464.43,20887,20.75,74392.0,22.33,13.17,14.95,0,*45
1534407465.62,20888,20.75,74392.3,22.39,12.51,14.05,0,*4A
1534407466.87,20889,20.75,74392.8,22.41,11.45,12.95,0,*4D
1534407468.06,20890,20.75,74394.0,22.47,10.69,11.85,0,*4E
1534407469.27,20891,20.75,74392.8,22.47,10.89,12.09,0,*46
1534407470.49,20892,20.75,74392.0,22.47,12.17,13.15,0,*4C
1534407471.71,20893,20.75,74392.3,22.47,11.21,12.05,0,*4B
1534407472.97,20894,20.75,74392.8,22.49,11.57,12.43,0,*41
1534407474.22,20895,20.75,74392.8,22.49,11.45,12.19,0,*4C
1534407475.43,20896,20.75,74394.3,22.51,11.95,12.77,0,*43
1534407476.68,20897,20.75,74394.0,22.53,11.89,12.53,0,*4B
1534407477.95,20898,20.75,74394.3,22.53,11.61,12.17,0,*42
1534407479.21,20899,20.75,74394.8,22.53,11.71,12.17,0,*42
1534407480.47,20900,20.81,74394.8,22.53,11.79,12.13,0,*4F
1534407481.72,20901,20.75,74392.5,22.57,11.79,11.99,0,*4B
1534407482.96,20902,20.75,74392.8,22.57,11.55,11.67,0,*47
1534407484.18,20903,20.81,74394.5,22.57,11.47,11.65,0,*47
1534407485.4,20904,20.75,74394.8,22.55,11.55,11.71,0,*44
1534407486.65,20905,20.75,74390.0,22.55,11.45,11.61,0,*45
1534407487.9,20906,20.75,74392.3,22.57,10.69,10.75,0,*4F
1534407489.14,20907,20.81,74394.8,22.53,10.75,10.85,0,*48
1534407490.33,20908,20.75,74392.5,22.51,10.47,10.47,0,*4A
1534407491.55,20909,20.81,74394.8,22.51,11.21,11.37,0,*4C
1534407492.8,20910,20.75,74394.0,22.49,11.09,11.03,0,*40
1534407494.04,20911,20.75,74390.5,22.49,10.71,10.69,0,*42
1534407495.32,20912,20.81,74394.0,22.49,11.33,11.37,0,*4C
1534407496.53,20913,20.75,74390.8,22.49,11.21,11.21,0,*49
1534407497.78,20914,20.81,74392.5,22.47,10.99,10.99,0,*40
1534407499.01,20915,20.75,74394.0,22.43,10.57,10.57,0,*45
1534407500.25,20916,20.81,74390.8,22.47,10.99,10.95,0,*4E
1534407501.5,20917,20.81,74392.5,22.43,10.71,10.71,0,*47
1534407502.74,20918,20.75,74390.3,22.43,10.71,10.65,0,*4D
1534407503.96,20919,20.75,74392.3,22.41,10.55,10.69,0,*44
1534407505.14,20920,20.75,74388.3,22.39,10.55,10.55,0,*4E
1534407506.34,20921,20.75,74388.8,22.39,10.33,10.33,0,*4F
1534407507.55,20922,20.75,74392.3,22.35,9.75,9.77,0,*42
1534407508.8,20923,20.81,74392.5,22.35,10.27,10.19,0,*4C
1534407510.01,20924,20.81,74394.8,22.33,9.07,9.07,0,*40
1534407511.22,20925,20.75,74390.5,22.27,8.97,8.87,0,*45
1534407512.4,20926,20.81,74392.3,22.27,9.29,9.33,0,*4C
1534407513.6,20927,20.81,74394.3,22.25,9.95,9.95,0,*44
1534407514.84,20928,20.81,74394.3,22.21,9.85,9.91,0,*4A
1534407516.08,20929,20.75,74390.3,22.21,9.81,9.95,0,*4B
1534407517.31,20930,20.75,74388.8,22.19,9.81,9.91,0,*4C
1534407518.48,20931,20.81,74394.3,22.17,8.69,8.65,0,*4E
1534407519.74,20932,20.75,74390.5,22.15,9.57,9.53,0,*47
1534407521.0,20933,20.81,74394.8,22.11,9.35,9.35,0,*46
1534407522.2,20934,20.81,74394.8,22.11,9.25,9.33,0,*46
1534407523.44,20935,20.81,74394.0,22.07,8.87,8.97,0,*46
1534407524.65,20936,20.81,74390.5,22.05,9.43,9.53,0,*47
1534407525.86,20937,20.81,74392.5,22.05,9.35,9.43,0,*46
1534407527.07,20938,20.81,74392.0,22.03,9.71,9.91,0,*40
1534407528.32,20939,20.75,74388.8,21.99,10.09,10.23,0,*47
1534407529.56,20940,20.75,74390.3,21.99,9.47,9.57,0,*40
1534407530.82,20941,20.81,74394.3,21.95,8.93,9.15,0,*43
1534407532.03,20942,20.81,74392.3,21.95,9.95,10.09,0,*72
1534407533.23,20943,20.81,74394.0,21.93,10.03,10.09,0,*42
1534407534.48,20944,20.81,74394.0,21.91,8.89,9.11,0,*4D
1534407535.67,20945,20.81,74394.0,21.89,9.43,9.47,0,*41
1534407536.88,20946,20.81,74398.8,21.87,8.97,9.07,0,*40
1534407538.1,20947,20.81,74394.0,21.85,9.21,9.39,0,*42
1534407539.32,20948,20.75,74388.3,21.83,9.89,10.03,0,*78
1534407540.58,20949,20.81,74392.0,21.85,8.41,8.55,0,*40
1534407541.8,20950,20.81,74394.8,21.79,8.79,8.89,0,*41
1534407543.03,20951,20.81,74392.0,21.79,8.97,9.11,0,*40
1534407544.29,20952,20.81,74392.8,21.73,8.89,9.01,0,*47
1534407545.52,20953,20.81,74392.8,21.73,9.03,9.19,0,*4C
1534407546.77,20954,20.81,74394.8,21.71,9.19,9.49,0,*47
1534407548.01,20955,20.81,74392.0,21.71,9.49,9.57,0,*4C
1534407549.23,20956,20.75,74390.0,21.69,9.91,10.09,0,*70
1534407550.48,20957,20.81,74392.8,21.69,10.09,10.23,0,*40
1534407551.73,20958,20.75,74390.3,21.69,10.31,10.43,0,*42
1534407552.97,20959,20.81,74392.5,21.69,8.79,8.89,0,*49
1534407554.2,20960,20.81,74392.8,21.65,8.79,8.89,0,*4F
1534407555.44,20961,20.81,74392.0,21.65,8.13,8.15,0,*47
1534407556.67,20962,20.81,74392.3,21.61,7.91,8.01,0,*40
1534407557.94,20963,20.81,74392.8,21.57,8.55,8.75,0,*40
1534407559.17,20964,20.81,74388.0,21.57,8.45,8.71,0,*42
1534407560.41,20965,20.81,74390.3,21.51,7.47,7.59,0,*4D
1534407561.61,20966,20.81,74390.5,21.51,7.97,8.15,0,*44
1534407562.82,20967,20.81,74392.8,21.49,9.11,9.33,0,*49
1534407564.06,20968,20.81,74392.8,21.47,7.87,8.05,0,*4D
1534407565.27,20969,20.81,74392.5,21.43,6.79,7.09,0,*4B
1534407566.53,20970,20.81,74392.5,21.39,6.39,6.65,0,*41
1534407567.8,20971,20.81,74392.0,21.35,6.73,7.11,0,*40
1534407569.03,20972,20.81,74392.3,21.35,7.41,7.73,0,*47
1534407570.25,20973,20.81,74392.0,21.29,7.33,7.77,0,*4A
1534407571.48,20974,20.81,74390.8,21.29,7.65,8.13,0,*43
1534407572.69,20975,20.81,74392.8,21.25,7.69,8.19,0,*48
1534407573.93,20976,20.81,74392.3,21.27,7.51,7.87,0,*4A
1534407575.18,20977,20.81,74390.8,21.23,8.33,8.89,0,*45
1534407576.41,20978,20.81,74394.3,21.23,7.91,8.27,0,*49
1534407577.58,20979,20.81,74394.8,21.21,7.45,7.97,0,*47
1534407578.78,20980,20.81,74392.5,21.21,7.87,8.45,0,*4F
1534407580.01,20981,20.81,74392.0,21.17,7.47,7.95,0,*45
1534407581.23,20982,20.81,74394.0,21.17,7.73,8.29,0,*49
1534407582.48,20983,20.81,74392.0,21.15,7.27,7.91,0,*47
1534407583.65,20984,20.81,74392.8,21.13,7.59,8.23,0,*49
1534407584.87,20985,20.81,74390.8,21.13,9.15,9.77,0,*4E
1534407586.11,20986,20.81,74392.3,21.15,9.03,9.49,0,*41
1534407587.31,20987,20.81,74394.0,21.13,9.03,9.61,0,*4C
1534407588.54,20988,20.81,74392.8,21.15,10.43,10.99,0,*46
1534407589.77,20989,20.81,74390.8,21.19,10.69,11.31,0,*40
1534407591.0,20990,20.81,74388.8,21.21,9.19,9.57,0,*45
1534407592.23,20991,20.81,74390.5,21.19,7.79,8.41,0,*41
1534407593.45,20992,20.81,74394.3,21.19,9.35,9.99,0,*40
1534407594.68,20993,20.81,74388.5,21.19,10.03,10.65,0,*47
1534407595.89,20994,20.81,74392.0,21.19,9.99,10.69,0,*77
1534407597.12,20995,20.81,74392.0,21.21,10.41,10.99,0,*4F
1534407598.34,20996,20.81,74392.0,21.23,10.27,10.89,0,*4F
1534407599.59,20997,20.81,74392.8,21.25,10.37,11.07,0,*4E
1534407600.84,20998,20.81,74390.8,21.27,9.85,10.51,0,*70
1534407602.06,20999,20.81,74392.5,21.27,10.17,10.93,0,*4C
1534407603.31,21000,20.81,74392.0,21.27,9.71,10.31,0,*74
1534407604.56,21001,20.81,74388.3,21.29,9.77,10.61,0,*78
1534407605.8,21002,20.81,74390.3,21.31,10.03,10.65,0,*4D
1534407607.07,21003,20.81,74388.8,21.31,9.57,10.27,0,*73
1534407608.32,21004,20.81,74388.0,21.29,9.57,10.31,0,*7A
1534407609.51,21005,20.81,74390.5,21.29,9.07,9.67,0,*45
1534407610.72,21006,20.81,74390.3,21.35,9.29,9.95,0,*4A
1534407611.96,21007,20.81,74390.3,21.35,9.25,9.85,0,*46
1534407613.17,21008,20.81,74394.5,21.31,8.61,9.33,0,*41
1534407614.38,21009,20.81,74392.8,21.31,9.21,9.91,0,*4D
1534407615.64,21010,20.81,74394.5,21.31,9.77,10.47,0,*75
1534407616.88,21011,20.81,74392.8,21.31,9.89,10.55,0,*76
1534407618.13,21012,20.81,74390.8,21.31,9.71,10.37,0,*76
1534407619.35,21013,20.81,74392.5,21.37,9.63,10.31,0,*74
1534407620.55,21014,20.81,74392.5,21.37,10.09,10.85,0,*48
1534407621.79,21015,20.81,74388.3,21.37,10.27,11.03,0,*4A
1534407623.03,21016,20.81,74392.0,21.39,10.99,11.81,0,*48
1534407624.28,21017,20.81,74392.0,21.41,10.65,11.45,0,*4D
1534407625.51,21018,20.81,74388.8,21.43,10.13,10.93,0,*4B
1534407626.75,21019,20.81,74390.5,21.45,10.27,10.95,0,*4D
1534407628.03,21020,20.81,74390.5,21.47,9.57,10.23,0,*77
1534407629.27,21021,20.81,74392.0,21.47,9.95,10.65,0,*7A
1534407630.5,21022,20.81,74392.8,21.47,10.17,10.85,0,*45
1534407631.72,21023,20.81,74394.5,21.49,9.85,10.51,0,*70
1534407633.0,21024,20.81,74394.3,21.47,10.31,10.95,0,*46
1534407634.23,21025,20.81,74392.8,21.49,10.09,10.75,0,*4C
1534407635.45,21026,20.81,74392.3,21.51,10.13,10.85,0,*42
1534407636.67,21027,20.81,74396.5,21.53,10.37,11.13,0,*49
1534407637.91,21028,20.81,74392.8,21.57,10.55,11.27,0,*41